Year,Month,Day,Hour,Minute,Value (Times are PST for temperature in C)
2022,05,04,08,39,7.40
2022,05,04,08,40,7.40
2022,05,04,08,41,7.50
2022,05,04,08,42,7.50
2022,05,04,08,43,7.50
2022,05,04,08,44,7.50
2022,05,04,08,45,7.60
2022,05,04,08,46,7.60
2022,05,04,08,47,7.60
2022,05,04,08,48,7.60
2022,05,04,08,49,7.70
2022,05,04,08,50,7.70
2022,05,04,08,51,7.70
2022,05,04,08,52,7.70
2022,05,04,08,53,7.70
2022,05,04,08,54,7.70
2022,05,04,08,55,7.70
2022,05,04,08,56,7.70
2022,05,04,08,57,7.80
2022,05,04,08,58,7.80
2022,05,04,08,59,7.80
2022,05,04,09,00,7.90
2022,05,04,09,01,7.90
2022,05,04,09,02,7.90
2022,05,04,09,03,7.90
2022,05,04,09,04,7.90
2022,05,04,09,05,7.90
2022,05,04,09,06,7.90
2022,05,04,09,07,8.00
2022,05,04,09,08,8.00
2022,05,04,09,09,8.00
2022,05,04,09,10,8.00
2022,05,04,09,11,8.00
2022,05,04,09,12,8.00
2022,05,04,09,13,8.00
2022,05,04,09,14,8.00
2022,05,04,09,15,8.00
2022,05,04,09,16,8.00
2022,05,04,09,17,8.00
2022,05,04,09,18,8.00
2022,05,04,09,19,8.10
2022,05,04,09,20,8.10
2022,05,04,09,21,8.10
2022,05,04,09,22,8.10
2022,05,04,09,23,8.00
2022,05,04,09,24,8.00
2022,05,04,09,25,8.00
2022,05,04,09,26,8.00
2022,05,04,09,27,8.00
2022,05,04,09,28,8.00
2022,05,04,09,29,8.00
2022,05,04,09,30,8.00
2022,05,04,09,31,8.00
2022,05,04,09,32,7.90
2022,05,04,09,33,7.90
2022,05,04,09,34,7.90
2022,05,04,09,35,7.90
2022,05,04,09,36,7.90
2022,05,04,09,37,7.90
2022,05,04,09,38,7.90
2022,05,04,09,39,8.00
2022,05,04,09,40,8.00
2022,05,04,09,41,8.00
2022,05,04,09,42,8.00
2022,05,04,09,43,8.10
2022,05,04,09,44,8.10
2022,05,04,09,45,8.10
2022,05,04,09,46,8.10
2022,05,04,09,47,8.20
2022,05,04,09,48,8.20
2022,05,04,09,49,8.20
2022,05,04,09,50,8.20
2022,05,04,09,51,8.20
2022,05,04,09,52,8.30
2022,05,04,09,53,8.30
2022,05,04,09,54,8.30
2022,05,04,09,55,8.30
2022,05,04,09,56,8.40
2022,05,04,09,57,8.40
2022,05,04,09,58,8.50
2022,05,04,09,59,8.50
2022,05,04,10,00,8.50
2022,05,04,10,01,8.60
2022,05,04,10,02,8.60
2022,05,04,10,03,8.60
2022,05,04,10,04,8.60
2022,05,04,10,05,8.60
2022,05,04,10,06,8.60
2022,05,04,10,07,8.60
2022,05,04,10,08,8.60
2022,05,04,10,09,8.70
2022,05,04,10,10,8.70
2022,05,04,10,11,8.70
2022,05,04,10,12,8.70
2022,05,04,10,13,8.70
2022,05,04,10,14,8.70
2022,05,04,10,15,8.60
2022,05,04,10,16,8.60
2022,05,04,10,17,8.70
2022,05,04,10,18,8.70
2022,05,04,10,19,8.70
2022,05,04,10,20,8.70
2022,05,04,10,21,8.70
2022,05,04,10,22,8.70
2022,05,04,10,23,8.70
2022,05,04,10,24,8.70
2022,05,04,10,25,8.70
2022,05,04,10,26,8.70
2022,05,04,10,27,8.70
2022,05,04,10,28,8.70
2022,05,04,10,29,8.80
2022,05,04,10,30,8.80
2022,05,04,10,31,8.80
2022,05,04,10,32,8.80
2022,05,04,10,33,8.80
2022,05,04,10,34,8.80
2022,05,04,10,35,8.80
2022,05,04,10,36,8.80
2022,05,04,10,37,8.80
2022,05,04,10,38,8.80
2022,05,04,10,39,8.80
2022,05,04,10,40,8.80
2022,05,04,10,41,8.80
2022,05,04,10,42,8.80
2022,05,04,10,43,8.80
2022,05,04,10,44,8.80
2022,05,04,10,45,8.90
2022,05,04,10,46,8.90
2022,05,04,10,47,8.90
2022,05,04,10,48,8.90
2022,05,04,10,49,8.90
2022,05,04,10,50,8.90
2022,05,04,10,51,8.90
2022,05,04,10,52,8.90
2022,05,04,10,53,8.90
2022,05,04,10,54,9.00
2022,05,04,10,55,9.00
2022,05,04,10,56,9.00
2022,05,04,10,57,9.00
2022,05,04,10,58,9.00
2022,05,04,10,59,9.10
2022,05,04,11,00,9.10
2022,05,04,11,01,9.10
2022,05,04,11,02,9.10
2022,05,04,11,03,9.20
2022,05,04,11,04,9.20
2022,05,04,11,05,9.20
2022,05,04,11,06,9.20
2022,05,04,11,07,9.20
2022,05,04,11,08,9.30
2022,05,04,11,09,9.30
2022,05,04,11,10,9.30
2022,05,04,11,11,9.30
2022,05,04,11,12,9.30
2022,05,04,11,13,9.30
2022,05,04,11,14,9.30
2022,05,04,11,15,9.30
2022,05,04,11,16,9.30
2022,05,04,11,17,9.30
2022,05,04,11,18,9.30
2022,05,04,11,19,9.30
2022,05,04,11,20,9.30
2022,05,04,11,21,9.30
2022,05,04,11,22,9.30
2022,05,04,11,23,9.30
2022,05,04,11,24,9.30
2022,05,04,11,25,9.30
2022,05,04,11,26,9.30
2022,05,04,11,27,9.20
2022,05,04,11,28,9.20
2022,05,04,11,29,9.20
2022,05,04,11,30,9.20
2022,05,04,11,31,9.20
2022,05,04,11,32,9.20
2022,05,04,11,33,9.20
2022,05,04,11,34,9.20
2022,05,04,11,35,9.20
2022,05,04,11,36,9.30
2022,05,04,11,37,9.20
2022,05,04,11,38,9.20
2022,05,04,11,39,9.20
2022,05,04,11,40,9.30
2022,05,04,11,41,9.30
2022,05,04,11,42,9.30
2022,05,04,11,43,9.30
2022,05,04,11,44,9.30
2022,05,04,11,45,9.30
2022,05,04,11,46,9.30
2022,05,04,11,47,9.40
2022,05,04,11,48,9.40
2022,05,04,11,49,9.40
2022,05,04,11,50,9.40
2022,05,04,11,51,9.40
2022,05,04,11,52,9.50
2022,05,04,11,53,9.50
2022,05,04,11,54,9.50
2022,05,04,11,55,9.50
2022,05,04,11,56,9.50
2022,05,04,11,57,9.60
2022,05,04,11,58,9.60
2022,05,04,11,59,9.60
2022,05,04,12,00,9.60
2022,05,04,12,01,9.60
2022,05,04,12,02,9.70
2022,05,04,12,03,9.70
2022,05,04,12,04,9.70
2022,05,04,12,05,9.70
2022,05,04,12,06,9.70
2022,05,04,12,07,9.70
2022,05,04,12,08,9.70
2022,05,04,12,09,9.70
2022,05,04,12,10,9.80
2022,05,04,12,11,9.80
2022,05,04,12,12,9.80
2022,05,04,12,13,9.80
2022,05,04,12,14,9.80
2022,05,04,12,15,9.90
2022,05,04,12,16,9.90
2022,05,04,12,17,9.90
2022,05,04,12,18,9.90
2022,05,04,12,19,10.00
2022,05,04,12,20,10.00
2022,05,04,12,21,10.10
2022,05,04,12,22,10.10
2022,05,04,12,23,10.20
2022,05,04,12,24,10.30
2022,05,04,12,25,10.30
2022,05,04,12,26,10.30
2022,05,04,12,27,10.40
2022,05,04,12,28,10.40
2022,05,04,12,29,10.40
2022,05,04,12,30,10.40
2022,05,04,12,31,10.40
2022,05,04,12,32,10.40
2022,05,04,12,33,10.40
2022,05,04,12,34,10.40
2022,05,04,12,35,10.40
2022,05,04,12,36,10.40
2022,05,04,12,37,10.40
2022,05,04,12,38,10.40
2022,05,04,12,39,10.40
2022,05,04,12,40,10.40
2022,05,04,12,41,10.40
2022,05,04,12,42,10.40
2022,05,04,12,43,10.40
2022,05,04,12,44,10.40
2022,05,04,12,45,10.40
2022,05,04,12,46,10.40
2022,05,04,12,47,10.40
2022,05,04,12,48,10.40
2022,05,04,12,49,10.40
2022,05,04,12,50,10.50
2022,05,04,12,51,10.50
2022,05,04,12,52,10.50
2022,05,04,12,53,10.50
2022,05,04,12,54,10.60
2022,05,04,12,55,10.60
2022,05,04,12,56,10.60
2022,05,04,12,57,10.60
2022,05,04,12,58,10.70
2022,05,04,12,59,10.70
2022,05,04,13,00,10.70
2022,05,04,13,01,10.70
2022,05,04,13,02,10.70
2022,05,04,13,03,10.80
2022,05,04,13,04,10.80
2022,05,04,13,05,10.80
2022,05,04,13,06,10.80
2022,05,04,13,07,10.80
2022,05,04,13,08,10.80
2022,05,04,13,09,10.80
2022,05,04,13,10,10.80
2022,05,04,13,11,10.80
2022,05,04,13,12,10.90
2022,05,04,13,13,10.90
2022,05,04,13,14,11.00
2022,05,04,13,15,11.00
2022,05,04,13,16,11.00
2022,05,04,13,17,11.10
2022,05,04,13,18,11.10
2022,05,04,13,19,11.20
2022,05,04,13,20,11.20
2022,05,04,13,21,11.20
2022,05,04,13,22,11.20
2022,05,04,13,23,11.20
2022,05,04,13,24,11.20
2022,05,04,13,25,11.20
2022,05,04,13,26,11.20
2022,05,04,13,27,11.20
2022,05,04,13,28,11.10
2022,05,04,13,29,11.10
2022,05,04,13,30,11.10
2022,05,04,13,31,11.10
2022,05,04,13,32,11.10
2022,05,04,13,33,11.00
2022,05,04,13,34,11.00
2022,05,04,13,35,11.00
2022,05,04,13,36,11.00
2022,05,04,13,37,11.00
2022,05,04,13,38,11.00
2022,05,04,13,39,11.00
2022,05,04,13,40,11.00
2022,05,04,13,41,10.90
2022,05,04,13,42,10.90
2022,05,04,13,43,10.90
2022,05,04,13,44,10.90
2022,05,04,13,45,10.90
2022,05,04,13,46,10.90
2022,05,04,13,47,10.90
2022,05,04,13,48,10.90
2022,05,04,13,49,11.00
2022,05,04,13,50,11.00
2022,05,04,13,51,11.00
2022,05,04,13,52,11.00
2022,05,04,13,53,11.00
2022,05,04,13,54,11.00
2022,05,04,13,55,11.00
2022,05,04,13,56,11.00
2022,05,04,13,57,11.00
2022,05,04,13,58,10.90
2022,05,04,13,59,10.90
2022,05,04,14,00,10.90
2022,05,04,14,01,10.90
2022,05,04,14,02,10.90
2022,05,04,14,03,10.90
2022,05,04,14,04,10.90
2022,05,04,14,05,10.90
2022,05,04,14,06,10.90
2022,05,04,14,07,10.90
2022,05,04,14,08,10.90
2022,05,04,14,09,10.90
2022,05,04,14,10,10.90
2022,05,04,14,11,10.90
2022,05,04,14,12,10.90
2022,05,04,14,13,11.00
2022,05,04,14,14,11.00
2022,05,04,14,15,11.00
2022,05,04,14,16,11.00
2022,05,04,14,17,11.00
2022,05,04,14,18,11.00
2022,05,04,14,19,11.00
2022,05,04,14,20,11.00
2022,05,04,14,21,11.00
2022,05,04,14,22,11.00
2022,05,04,14,23,11.00
2022,05,04,14,24,11.00
2022,05,04,14,25,10.90
2022,05,04,14,26,11.00
2022,05,04,14,27,10.90
2022,05,04,14,28,10.90
2022,05,04,14,29,10.90
2022,05,04,14,30,10.90
2022,05,04,14,31,10.90
2022,05,04,14,32,10.90
2022,05,04,14,33,10.90
2022,05,04,14,34,10.80
2022,05,04,14,35,10.80
2022,05,04,14,36,10.80
2022,05,04,14,37,10.80
2022,05,04,14,38,10.80
2022,05,04,14,39,10.80
2022,05,04,14,40,10.80
2022,05,04,14,41,10.80
2022,05,04,14,42,10.80
2022,05,04,14,43,10.80
2022,05,04,14,44,10.80
2022,05,04,14,45,10.80
2022,05,04,14,46,10.80
2022,05,04,14,47,10.80
2022,05,04,14,48,10.70
2022,05,04,14,49,10.70
2022,05,04,14,50,10.70
2022,05,04,14,51,10.70
2022,05,04,14,52,10.70
2022,05,04,14,53,10.70
2022,05,04,14,54,10.70
2022,05,04,14,55,10.70
2022,05,04,14,56,10.70
2022,05,04,14,57,10.60
2022,05,04,14,58,10.60
2022,05,04,14,59,10.60
2022,05,04,15,00,10.60
2022,05,04,15,01,10.60
2022,05,04,15,02,10.60
2022,05,04,15,03,10.60
2022,05,04,15,04,10.60
2022,05,04,15,05,10.60
2022,05,04,15,06,10.60
2022,05,04,15,07,10.60
2022,05,04,15,08,10.60
2022,05,04,15,09,10.60
2022,05,04,15,10,10.60
2022,05,04,15,11,10.60
2022,05,04,15,12,10.60
2022,05,04,15,13,10.60
2022,05,04,15,14,10.60
2022,05,04,15,15,10.60
2022,05,04,15,16,10.60
2022,05,04,15,17,10.60
2022,05,04,15,18,10.60
2022,05,04,15,19,10.60
2022,05,04,15,20,10.60
2022,05,04,15,21,10.60
2022,05,04,15,22,10.60
2022,05,04,15,23,10.60
2022,05,04,15,24,10.60
2022,05,04,15,25,10.60
2022,05,04,15,26,10.60
2022,05,04,15,27,10.60
2022,05,04,15,28,10.60
2022,05,04,15,29,10.60
2022,05,04,15,30,10.60
2022,05,04,15,31,10.60
2022,05,04,15,32,10.60
2022,05,04,15,33,10.60
2022,05,04,15,34,10.60
2022,05,04,15,35,10.60
2022,05,04,15,36,10.60
2022,05,04,15,37,10.60
2022,05,04,15,38,10.60
2022,05,04,15,39,10.60
2022,05,04,15,40,10.60
2022,05,04,15,41,10.60
2022,05,04,15,42,10.60
2022,05,04,15,43,10.60
2022,05,04,15,44,10.60
2022,05,04,15,45,10.60
2022,05,04,15,46,10.60
2022,05,04,15,47,10.60
2022,05,04,15,48,10.60
2022,05,04,15,49,10.70
2022,05,04,15,50,10.70
2022,05,04,15,51,10.70
2022,05,04,15,52,10.70
2022,05,04,15,53,10.70
2022,05,04,15,54,10.70
2022,05,04,15,55,10.70
2022,05,04,15,56,10.80
2022,05,04,15,57,10.80
2022,05,04,15,58,10.80
2022,05,04,15,59,10.80
2022,05,04,16,00,10.80
2022,05,04,16,01,10.80
2022,05,04,16,02,10.90
2022,05,04,16,03,10.90
2022,05,04,16,04,10.90
2022,05,04,16,05,10.90
2022,05,04,16,06,10.90
2022,05,04,16,07,10.90
2022,05,04,16,08,10.90
2022,05,04,16,09,11.00
2022,05,04,16,10,11.00
2022,05,04,16,11,11.00
2022,05,04,16,12,11.00
2022,05,04,16,13,11.00
2022,05,04,16,14,11.10
2022,05,04,16,15,11.10
2022,05,04,16,16,11.10
2022,05,04,16,17,11.10
2022,05,04,16,18,11.10
2022,05,04,16,19,11.10
2022,05,04,16,20,11.20
2022,05,04,16,21,11.20
2022,05,04,16,22,11.20
2022,05,04,16,23,11.20
2022,05,04,16,24,11.20
2022,05,04,16,25,11.30
2022,05,04,16,26,11.30
2022,05,04,16,27,11.30
2022,05,04,16,28,11.30
2022,05,04,16,29,11.30
2022,05,04,16,30,11.40
2022,05,04,16,31,11.40
2022,05,04,16,32,11.40
2022,05,04,16,33,11.40
2022,05,04,16,34,11.40
2022,05,04,16,35,11.50
2022,05,04,16,36,11.50
2022,05,04,16,37,11.50
2022,05,04,16,38,11.50
2022,05,04,16,39,11.60
2022,05,04,16,40,11.60
2022,05,04,16,41,11.60
2022,05,04,16,42,11.60
2022,05,04,16,43,11.60
2022,05,04,16,44,11.60
2022,05,04,16,45,11.70
2022,05,04,16,46,11.70
2022,05,04,16,47,11.70
2022,05,04,16,48,11.70
2022,05,04,16,49,11.70
2022,05,04,16,50,11.70
2022,05,04,16,51,11.80
2022,05,04,16,52,11.80
2022,05,04,16,53,11.80
2022,05,04,16,54,11.80
2022,05,04,16,55,11.80
2022,05,04,16,56,11.80
2022,05,04,16,57,11.80
2022,05,04,16,58,11.80
2022,05,04,16,59,11.80
2022,05,04,17,00,11.80
2022,05,04,17,01,11.80
2022,05,04,17,02,11.80
2022,05,04,17,03,11.80
2022,05,04,17,04,11.80
2022,05,04,17,05,11.80
2022,05,04,17,06,11.80
2022,05,04,17,07,11.80
2022,05,04,17,08,11.80
2022,05,04,17,09,11.80
2022,05,04,17,10,11.90
2022,05,04,17,11,11.80
2022,05,04,17,12,11.90
2022,05,04,17,13,11.90
2022,05,04,17,14,11.90
2022,05,04,17,15,11.90
2022,05,04,17,16,11.90
2022,05,04,17,17,11.90
2022,05,04,17,18,11.90
2022,05,04,17,19,11.90
2022,05,04,17,20,11.90
2022,05,04,17,21,11.90
2022,05,04,17,22,11.90
2022,05,04,17,23,11.90
2022,05,04,17,24,11.90
2022,05,04,17,25,11.90
2022,05,04,17,26,11.90
2022,05,04,17,27,12.00
2022,05,04,17,28,12.00
2022,05,04,17,29,12.00
2022,05,04,17,30,12.00
2022,05,04,17,31,12.00
2022,05,04,17,32,12.00
2022,05,04,17,33,12.00
2022,05,04,17,34,12.00
2022,05,04,17,35,12.00
2022,05,04,17,36,12.00
2022,05,04,17,37,12.00
2022,05,04,17,38,12.00
2022,05,04,17,39,12.00
2022,05,04,17,40,12.00
2022,05,04,17,41,12.00
2022,05,04,17,42,12.00
2022,05,04,17,43,12.00
2022,05,04,17,44,12.00
2022,05,04,17,45,12.00
2022,05,04,17,46,12.00
2022,05,04,17,47,12.00
2022,05,04,17,48,12.00
2022,05,04,17,49,12.00
2022,05,04,17,50,12.00
2022,05,04,17,51,12.00
2022,05,04,17,52,12.00
2022,05,04,17,53,11.90
2022,05,04,17,54,11.90
2022,05,04,17,55,11.90
2022,05,04,17,56,11.90
2022,05,04,17,57,11.90
2022,05,04,17,58,11.90
2022,05,04,17,59,11.90
2022,05,04,18,00,11.90
2022,05,04,18,01,11.90
2022,05,04,18,02,11.90
2022,05,04,18,03,11.90
2022,05,04,18,04,11.90
2022,05,04,18,05,11.90
2022,05,04,18,06,11.90
2022,05,04,18,07,11.80
2022,05,04,18,08,11.90
2022,05,04,18,09,11.80
2022,05,04,18,10,11.80
2022,05,04,18,11,11.80
2022,05,04,18,12,11.80
2022,05,04,18,13,11.80
2022,05,04,18,14,11.80
2022,05,04,18,15,11.80
2022,05,04,18,16,11.70
2022,05,04,18,17,11.70
2022,05,04,18,18,11.70
2022,05,04,18,19,11.70
2022,05,04,18,20,11.70
2022,05,04,18,21,11.70
2022,05,04,18,22,11.70
2022,05,04,18,23,11.60
2022,05,04,18,24,11.60
2022,05,04,18,25,11.60
2022,05,04,18,26,11.60
2022,05,04,18,27,11.60
2022,05,04,18,28,11.60
2022,05,04,18,29,11.60
2022,05,04,18,30,11.50
2022,05,04,18,31,11.50
2022,05,04,18,32,11.40
2022,05,04,18,33,11.40
2022,05,04,18,34,11.40
2022,05,04,18,35,11.40
2022,05,04,18,36,11.40
2022,05,04,18,37,11.40
2022,05,04,18,38,11.40
2022,05,04,18,39,11.40
2022,05,04,18,40,11.30
2022,05,04,18,41,11.40
2022,05,04,18,42,11.30
2022,05,04,18,43,11.30
